[[{"header":{"parameterUnit":"m.s-1","parameterCategory":1,"la1":30.2991,"la2":30.254,"lo1":-89.0895,"lo2":-89.0444,"dy":0.0017,"dx":0.0017,"nx":28,"ny":28,"refTime":"2025-12-31T03:00:00:Z","depth":0,"parameterNumber":2,"parameterNumberName":"U-component_of_WINDS"},"data":[0,0,0,0,0,0,0,0,0,0,0,0,0,0,0,0,0,0,0,0,0,0,0,0,0,0,0,0,0,0,0,0,0,0,0,0,0,0,0,0,0,0,0,0,0,0,0,0,0,0,0,0,0,0,0,0,0,0,1.5327,1.5327,0,1.5343,1.5344,1.5344,1.535,1.535,1.535,1.5349,1.5366,1.5366,1.5367,0,0,0,0,0,0,0,0,0,0,0,0,0,1.5299,1.53,1.5327,1.5327,1.5327,1.5343,1.5344,1.5344,1.535,1.535,1.5349,1.5349,1.5366,1.5366,1.5367,0,0,0,0,0,0,0,0,0,0,0,0,0,1.5313,1.53,1.5327,1.5332,1.5333,1.5343,1.5344,1.5344,1.535,1.535,1.5349,1.5349,1.5366,1.5366,1.5367,1.5373,0,0,1.5369,1.537,0,0,0,0,0,0,0,0,1.5312,1.5314,1.5331,1.5332,1.5332,1.5344,1.534,1.5354,1.535,1.5343,1.5349,1.5349,1.5359,1.536,1.5363,1.5374,1.5375,1.5369,1.537,1.537,1.537,0,0,0,0,0,0,0,1.5312,1.5314,1.5333,1.5331,1.5332,1.5333,1.5335,1.5343,1.5351,1.5344,1.5344,1.5346,1.5359,1.5363,1.5364,1.5375,1.5369,1.537,1.537,1.5371,1.5393,1.5393,0,0,0,0,0,0,1.531,1.5313,1.5333,1.5334,1.5322,1.5334,1.5336,1.5341,1.5351,1.5353,1.5346,1.5346,1.5361,1.5363,1.5364,1.5373,1.537,1.5371,1.5371,1.5393,1.5393,1.5393,0,0,0,0,0,0,1.5309,1.5311,1.5332,1.5323,1.5326,1.5335,1.534,1.5341,1.5345,1.5353,1.5355,1.5348,1.5361,1.5363,1.5371,1.5374,1.5371,1.5372,1.5392,1.5393,1.5393,1.539,0,0,0,0,0,0,1.5308,1.5311,1.5314,1.5323,1.5327,1.5339,1.534,1.5341,1.5346,1.5346,1.5355,1.5357,1.5361,1.537,1.5372,1.5375,1.5372,1.5392,1.5393,1.5393,1.539,1.539,1.539,0,0,0,0,0,1.5307,1.5312,1.5314,1.5316,1.533,1.5339,1.5341,1.5346,1.5346,1.5349,1.5354,1.5357,1.5373,1.5371,1.5373,1.5376,1.5392,1.5392,1.5393,1.539,1.539,1.539,0,0,0,0,0,0,1.5302,1.5313,1.5315,1.5323,1.533,1.534,1.5343,1.5346,1.5353,1.5353,1.5359,1.5361,1.5369,1.5373,1.5371,1.5383,1.5383,1.5384,1.538,1.538,1.538,1.5379,1.5373,0,0,0,0,0,1.5301,1.5308,1.5318,1.5324,1.5327,1.5335,1.5339,1.5342,1.535,1.5352,1.5358,1.5365,1.5372,1.5376,1.5383,1.5391,1.5393,1.5394,1.5394,1.5394,1.5394,1.5399,1.54,1.5394,1.5394,1.5394,0,0,1.5301,1.5308,1.5311,1.5323,1.5328,1.5335,1.5337,1.5343,1.5348,1.5353,1.5361,1.5366,1.5374,1.5382,1.5386,1.5386,1.5397,1.5394,1.5394,1.5395,1.54,1.54,1.5401,1.5394,1.5394,1.5394,0,0,1.5303,1.5309,1.5315,1.5321,1.533,1.5335,1.5336,1.5346,1.5349,1.5358,1.5362,1.5367,1.5379,1.5385,1.5389,1.5394,1.5397,1.5396,1.5397,1.5402,1.5402,1.5402,1.5404,1.5405,1.5397,1.5397,1.5397,0,1.5301,1.5311,1.5317,1.5324,1.5329,1.5334,1.5341,1.5346,1.5356,1.5359,1.536,1.5375,1.538,1.539,1.5391,1.5395,1.5397,1.5395,1.5402,1.5402,1.5402,1.5404,1.5405,1.5397,1.5397,1.5397,1.5397,0,1.5308,1.5315,1.5319,1.5329,1.5335,1.5341,1.5349,1.5353,1.5357,1.5362,1.5371,1.5378,1.5386,1.5389,1.5392,1.5399,1.5399,1.54,1.54,1.5403,1.5405,1.5406,1.5397,1.5397,1.5397,1.5397,0,0,1.5307,1.5321,1.5322,1.5328,1.5338,1.5344,1.535,1.5359,1.5363,1.537,1.5376,1.5386,1.5388,1.5393,1.5397,1.5401,1.5405,1.5402,1.5402,1.5402,1.5413,1.5412,1.5413,1.5407,1.5407,1.5407,1.5413,0,1.531,1.5323,1.5329,1.5339,1.5345,1.5351,1.5357,1.5364,1.5369,1.5376,1.5382,1.5389,1.539,1.5393,1.5397,1.5404,1.5407,1.5403,1.5412,1.5413,1.541,1.5414,1.5413,1.5417,1.5413,1.5414,1.5414,0,1.5316,1.5324,1.5334,1.5344,1.5347,1.5353,1.5361,1.5368,1.5376,1.538,1.5386,1.539,1.5397,1.5397,1.5408,1.5405,1.5409,1.5413,1.5413,1.5414,1.5413,1.5415,1.5419,1.542,1.5415,1.5415,1.5415,0,1.5314,1.5327,1.5335,1.5339,1.5351,1.5355,1.536,1.5368,1.5373,1.5381,1.5384,1.5393,1.5397,1.5404,1.541,1.541,1.542,1.542,1.5423,1.5423,1.5425,1.5425,1.543,1.5428,1.5428,1.5428,1.5428,0,1.5317,1.5323,1.5334,1.5339,1.5346,1.5354,1.5361,1.5366,1.5374,1.538,1.5385,1.5391,1.5399,1.5406,1.5411,1.5419,1.5421,1.5424,1.5426,1.5424,1.5423,1.5426,1.5426,1.5428,1.5428,1.5428,1.5428,0,1.5315,1.5323,1.5332,1.5343,1.5346,1.5351,1.5361,1.5366,1.5372,1.5379,1.5382,1.5391,1.5399,1.5406,1.5417,1.5421,1.5429,1.5431,1.5426,1.5427,1.5429,1.5429,1.5436,1.5438,1.5435,1.5435,1.5435,0,1.5317,1.5322,1.5334,1.5338,1.5344,1.5351,1.5356,1.5364,1.5369,1.538,1.5384,1.5393,1.54,1.5413,1.5421,1.5429,1.5431,1.5433,1.5432,1.543,1.5431,1.543,1.5431,1.5433,1.5433,1.5433,1.5433,0,1.5318,1.5322,1.533,1.5339,1.5345,1.5353,1.536,1.5364,1.5373,1.5379,1.5388,1.5393,1.5405,1.5414,1.5423,1.5428,1.5432,1.5433,1.5434,1.5432,1.5429,1.5431,1.5426,1.5433,1.5433,1.5433,1.5433,1.5433,1.5318,1.5323,1.5333,1.5341,1.5348,1.5355,1.536,1.5367,1.5375,1.5385,1.5389,1.5398,1.5407,1.542,1.5425,1.5433,1.5433,1.5435,1.5435,1.5435,1.5435,1.5428,1.5434,1.5434,1.5434,1.5434,1.5434,0,1.532,1.5327,1.5334,1.5345,1.5352,1.5355,1.5364,1.537,1.5377,1.5386,1.5393,1.5403,1.5412,1.5421,1.543,1.5434,1.5436,1.5436,1.5436,1.5437,1.5434,1.5432,1.5434,1.5434,1.5434,1.5434,1.5434,1.5434,1.5322,1.5331,1.5336,1.5348,1.5354,1.5363,1.5368,1.5375,1.5381,1.5392,1.54,1.5406,1.5414,1.5424,1.5432,1.5434,1.5437,1.5437,1.544,1.5437,1.5437,1.5437,1.5435,1.5438,1.5438,1.5442,1.5442,1.5442]},{"header":{"parameterUnit":"m.s-1","parameterCategory":1,"la1":30.2991,"la2":30.254,"lo1":-89.0895,"lo2":-89.0444,"dy":0.0017,"dx":0.0017,"nx":28,"ny":28,"refTime":"2025-12-31T03:00:00:Z","depth":0,"parameterNumber":3,"parameterNumberName":"V-component_of_WINDS"},"data":[0,0,0,0,0,0,0,0,0,0,0,0,0,0,0,0,0,0,0,0,0,0,0,0,0,0,0,0,0,0,0,0,0,0,0,0,0,0,0,0,0,0,0,0,0,0,0,0,0,0,0,0,0,0,0,0,0,0,-4.9328,-4.933,0,-4.9528,-4.953,-4.9532,-4.9482,-4.9478,-4.9474,-4.947,-4.9673,-4.9682,-4.9691,0,0,0,0,0,0,0,0,0,0,0,0,0,-4.8898,-4.8906,-4.9327,-4.933,-4.9332,-4.9528,-4.953,-4.9533,-4.9483,-4.9478,-4.9473,-4.9468,-4.967,-4.9681,-4.9691,0,0,0,0,0,0,0,0,0,0,0,0,0,-4.909,-4.8909,-4.9327,-4.9331,-4.9333,-4.9527,-4.953,-4.9534,-4.9484,-4.9478,-4.9472,-4.9466,-4.9666,-4.968,-4.9693,-4.9895,0,0,-4.9734,-4.974,0,0,0,0,0,0,0,0,-4.9079,-4.9106,-4.9328,-4.9331,-4.9334,-4.9474,-4.9453,-4.9655,-4.9485,-4.9426,-4.947,-4.9463,-4.9611,-4.9629,-4.9679,-4.9904,-4.9913,-4.9736,-4.9744,-4.975,-4.9754,0,0,0,0,0,0,0,-4.9066,-4.9097,-4.9407,-4.9331,-4.9335,-4.9321,-4.9342,-4.9491,-4.9549,-4.9431,-4.9428,-4.9452,-4.9612,-4.9666,-4.9684,-4.9916,-4.9735,-4.9747,-4.9756,-4.9761,-5.0315,-5.0321,0,0,0,0,0,0,-4.905,-4.9086,-4.94,-4.9413,-4.9189,-4.9334,-4.9357,-4.9435,-4.9548,-4.9559,-4.9457,-4.9449,-4.9646,-4.9668,-4.9691,-4.9934,-4.975,-4.9762,-4.977,-5.0308,-5.0316,-5.0323,0,0,0,0,0,0,-4.9041,-4.9079,-4.9392,-4.9249,-4.9287,-4.9348,-4.9435,-4.9442,-4.9497,-4.9567,-4.9577,-4.9503,-4.9642,-4.9672,-4.9844,-4.994,-4.9768,-4.9781,-5.0301,-5.0311,-5.032,-5.0422,0,0,0,0,0,0,-4.9029,-4.9076,-4.9154,-4.9251,-4.9295,-4.9544,-4.9441,-4.945,-4.952,-4.9512,-4.9613,-4.9624,-4.964,-4.9824,-4.9858,-4.9956,-4.9791,-5.0292,-5.0305,-5.0317,-5.0411,-5.0434,-5.0455,0,0,0,0,0,-4.9014,-4.9175,-4.9158,-4.9197,-4.9394,-4.9549,-4.9575,-4.9591,-4.9528,-4.9607,-4.9652,-4.962,-4.9924,-4.9842,-4.988,-4.9983,-5.0286,-5.0301,-5.0316,-5.0401,-5.043,-5.0454,0,0,0,0,0,0,-4.9087,-4.9187,-4.917,-4.9367,-4.945,-4.954,-4.964,-4.9621,-4.9723,-4.9711,-4.9726,-4.9749,-4.9926,-4.9972,-4.9879,-5.0184,-5.0096,-5.0119,-5.0148,-5.0176,-5.0198,-5.0183,-4.9803,0,0,0,0,0,-4.9126,-4.9244,-4.9325,-4.9491,-4.9533,-4.958,-4.9648,-4.9653,-4.974,-4.9774,-4.9832,-4.9916,-5.0031,-5.0106,-5.0215,-5.0417,-5.0437,-5.0506,-5.0528,-5.0546,-5.0566,-5.0675,-5.0707,-5.0372,-5.0372,-5.0371,0,0,-4.9207,-4.9277,-4.9351,-4.9507,-4.9572,-4.9694,-4.961,-4.9742,-4.9832,-4.9794,-4.9961,-5.0006,-5.0101,-5.0289,-5.0375,-5.0333,-5.0663,-5.0565,-5.0579,-5.0589,-5.0694,-5.0726,-5.0754,-5.0382,-5.038,-5.0379,0,0,-4.9418,-4.9483,-4.9628,-4.9695,-4.9795,-4.9824,-4.9859,-4.9953,-4.9982,-5.015,-5.0124,-5.023,-5.0427,-5.0496,-5.0556,-5.0792,-5.0767,-5.0827,-5.0943,-5.105,-5.1076,-5.11,-5.1184,-5.1214,-5.0847,-5.0847,-5.0847,0,-4.9507,-4.969,-4.9705,-4.984,-4.9909,-4.9881,-5.0027,-5.0091,-5.0221,-5.0269,-5.022,-5.0466,-5.0528,-5.0732,-5.0789,-5.0839,-5.0879,-5.0816,-5.1071,-5.1095,-5.1117,-5.1198,-5.1229,-5.0854,-5.0853,-5.0852,-5.0852,0,-4.9794,-4.9921,-5.0026,-5.0153,-5.0234,-5.0374,-5.0409,-5.0489,-5.0487,-5.0521,-5.0692,-5.0765,-5.0889,-5.0937,-5.0936,-5.1141,-5.1112,-5.1067,-5.0979,-5.1156,-5.1231,-5.1262,-5.0863,-5.0861,-5.0859,-5.0857,0,0,-5.0057,-5.019,-5.0229,-5.0286,-5.0393,-5.0491,-5.0629,-5.0751,-5.0819,-5.0909,-5.1025,-5.1192,-5.1151,-5.122,-5.1227,-5.132,-5.1503,-5.1264,-5.1266,-5.1306,-5.1732,-5.1765,-5.1801,-5.1486,-5.1492,-5.1497,-5.1724,0,-5.0277,-5.0522,-5.0539,-5.0759,-5.0876,-5.0851,-5.0971,-5.105,-5.1085,-5.1189,-5.1228,-5.1346,-5.1283,-5.1325,-5.1416,-5.1461,-5.1588,-5.1445,-5.1593,-5.1598,-5.1571,-5.184,-5.1876,-5.2087,-5.1754,-5.1759,-5.1762,0,-5.0568,-5.0668,-5.09,-5.0991,-5.1041,-5.1149,-5.1261,-5.1361,-5.1449,-5.1468,-5.1545,-5.1538,-5.1679,-5.1585,-5.1779,-5.1681,-5.1742,-5.1773,-5.1782,-5.1796,-5.1691,-5.1863,-5.2155,-5.2187,-5.1809,-5.1805,-5.1802,0,-5.0736,-5.0929,-5.1093,-5.1142,-5.1252,-5.1329,-5.1378,-5.146,-5.1532,-5.1629,-5.1676,-5.1789,-5.185,-5.1937,-5.196,-5.189,-5.2154,-5.2062,-5.2173,-5.2173,-5.223,-5.2226,-5.2537,-5.2269,-5.2269,-5.2268,-5.2267,0,-5.0981,-5.1124,-5.117,-5.1271,-5.143,-5.1447,-5.1604,-5.1648,-5.1722,-5.183,-5.1814,-5.1916,-5.1941,-5.2047,-5.2066,-5.2223,-5.2251,-5.227,-5.2273,-5.2272,-5.227,-5.2313,-5.2299,-5.2276,-5.2275,-5.2273,-5.2272,0,-5.1197,-5.1233,-5.141,-5.15,-5.1526,-5.1639,-5.1715,-5.1812,-5.1845,-5.1982,-5.2015,-5.2067,-5.2191,-5.2223,-5.2371,-5.2384,-5.2569,-5.2559,-5.254,-5.254,-5.2649,-5.2638,-5.2999,-5.3047,-5.2747,-5.275,-5.2752,0,-5.1351,-5.1461,-5.1562,-5.1634,-5.1687,-5.1803,-5.1876,-5.1896,-5.1973,-5.2081,-5.2165,-5.2287,-5.2386,-5.2585,-5.2636,-5.2749,-5.2741,-5.2859,-5.2757,-5.2752,-5.2743,-5.2736,-5.2747,-5.2878,-5.2882,-5.2884,-5.2886,0,-5.1621,-5.1633,-5.174,-5.1854,-5.1942,-5.2032,-5.2118,-5.2177,-5.2209,-5.2296,-5.2424,-5.25,-5.2652,-5.2773,-5.2887,-5.2936,-5.2917,-5.2918,-5.2949,-5.2949,-5.2934,-5.2944,-5.2593,-5.291,-5.2907,-5.2906,-5.2904,-5.2903,-5.1811,-5.1907,-5.1994,-5.2113,-5.218,-5.226,-5.2356,-5.2401,-5.2507,-5.2633,-5.2638,-5.2776,-5.286,-5.3011,-5.3067,-5.3175,-5.3139,-5.3185,-5.3196,-5.3208,-5.3217,-5.2917,-5.3195,-5.3195,-5.3194,-5.3194,-5.3193,0,-5.208,-5.2134,-5.2244,-5.2365,-5.2459,-5.2433,-5.2526,-5.2606,-5.2728,-5.2809,-5.2907,-5.3053,-5.317,-5.323,-5.3346,-5.3421,-5.3415,-5.3451,-5.3445,-5.3457,-5.3242,-5.3204,-5.3453,-5.3453,-5.3453,-5.3453,-5.3453,-5.3453,-5.2231,-5.2393,-5.2415,-5.2609,-5.2662,-5.2798,-5.2854,-5.2928,-5.2992,-5.3156,-5.3254,-5.3292,-5.3364,-5.3485,-5.3592,-5.3606,-5.365,-5.369,-5.37,-5.3499,-5.3472,-5.3447,-5.341,-5.37,-5.37,-5.3906,-5.3908,-5.3909]}]]